Wetterdaten: Sonntag, 17.10.2010
Datum Zeit Temp. A. Feuchte A. Luftdruck Regen Wind Richtung Richtung Sonnenschein UV Solar Windben
17.10.2010 00:00 6,1 C 86 % 1017,7 hPa 0,0 mm 3,2 km/h (1 Bft) O-NO 67 0 min 0 UV-I 0 W/m 9,7 km/h (2 Bft)
17.10.2010 00:10 6,1 C 86 % 1018,0 hPa 0,0 mm 3,2 km/h (1 Bft) O-NO 67 0 min 0 UV-I 0 W/m 11,3 km/h (2 Bft)
17.10.2010 00:20 6,1 C 86 % 1017,9 hPa 0,0 mm 3,2 km/h (1 Bft) N-NO 22 0 min 0 UV-I 0 W/m 19,3 km/h (3 Bft)
17.10.2010 00:30 6,1 C 86 % 1018,1 hPa 0,0 mm 1,6 km/h (1 Bft) NO 45 0 min 0 UV-I 0 W/m 11,3 km/h (2 Bft)
17.10.2010 00:40 6,1 C 86 % 1018,1 hPa 0,0 mm 3,2 km/h (1 Bft) O-NO 67 0 min 0 UV-I 0 W/m 9,7 km/h (2 Bft)
17.10.2010 00:50 6,1 C 86 % 1018,2 hPa 0,0 mm 3,2 km/h (1 Bft) N-NO 22 0 min 0 UV-I 0 W/m 11,3 km/h (2 Bft)
17.10.2010 01:00 6,1 C 86 % 1018,4 hPa 0,0 mm 3,2 km/h (1 Bft) NO 45 0 min 0 UV-I 0 W/m 14,5 km/h (3 Bft)
17.10.2010 01:10 6,1 C 86 % 1018,4 hPa 0,0 mm 1,6 km/h (1 Bft) NO 45 0 min 0 UV-I 0 W/m 6,4 km/h (2 Bft)
17.10.2010 01:20 6,1 C 86 % 1018,5 hPa 0,0 mm 4,8 km/h (1 Bft) N-NO 22 0 min 0 UV-I 0 W/m 16,1 km/h (3 Bft)
17.10.2010 01:30 6,1 C 86 % 1018,6 hPa 0,0 mm 3,2 km/h (1 Bft) NO 45 0 min 0 UV-I 0 W/m 16,1 km/h (3 Bft)
17.10.2010 01:40 6,1 C 86 % 1018,6 hPa 0,0 mm 3,2 km/h (1 Bft) NO 45 0 min 0 UV-I 0 W/m 11,3 km/h (2 Bft)
17.10.2010 01:50 6,1 C 86 % 1018,7 hPa 0,0 mm 3,2 km/h (1 Bft) N-NO 22 0 min 0 UV-I 0 W/m 8,0 km/h (2 Bft)
17.10.2010 02:00 6,1 C 86 % 1018,7 hPa 0,0 mm 3,2 km/h (1 Bft) O-NO 67 0 min 0 UV-I 0 W/m 9,7 km/h (2 Bft)
17.10.2010 02:10 6,1 C 86 % 1018,8 hPa 0,0 mm 1,6 km/h (1 Bft) NO 45 0 min 0 UV-I 0 W/m 11,3 km/h (2 Bft)
17.10.2010 02:20 6,1 C 86 % 1018,9 hPa 0,0 mm 3,2 km/h (1 Bft) N-NO 22 0 min 0 UV-I 0 W/m 11,3 km/h (2 Bft)
17.10.2010 02:30 6,1 C 86 % 1018,9 hPa 0,0 mm 3,2 km/h (1 Bft) N-NO 22 0 min 0 UV-I 0 W/m 8,0 km/h (2 Bft)
17.10.2010 02:40 6,1 C 86 % 1019,1 hPa 0,0 mm 1,6 km/h (1 Bft) NO 45 0 min 0 UV-I 0 W/m 6,4 km/h (2 Bft)
17.10.2010 02:50 6,1 C 86 % 1019,2 hPa 0,0 mm 3,2 km/h (1 Bft) N-NO 22 0 min 0 UV-I 0 W/m 9,7 km/h (2 Bft)
17.10.2010 03:00 6,1 C 86 % 1019,2 hPa 0,0 mm 1,6 km/h (1 Bft) O-NO 67 0 min 0 UV-I 0 W/m 8,0 km/h (2 Bft)
17.10.2010 03:10 6,1 C 86 % 1019,2 hPa 0,0 mm 3,2 km/h (1 Bft) O-NO 67 0 min 0 UV-I 0 W/m 11,3 km/h (2 Bft)
17.10.2010 03:20 6,1 C 86 % 1019,3 hPa 0,0 mm 3,2 km/h (1 Bft) N-NO 22 0 min 0 UV-I 0 W/m 8,0 km/h (2 Bft)
17.10.2010 03:30 6,1 C 86 % 1019,3 hPa 0,0 mm 1,6 km/h (1 Bft) N-NO 22 0 min 0 UV-I 0 W/m 8,0 km/h (2 Bft)
17.10.2010 03:40 6,1 C 87 % 1019,5 hPa 0,0 mm 3,2 km/h (1 Bft) NO 45 0 min 0 UV-I 0 W/m 14,5 km/h (3 Bft)
17.10.2010 03:50 6,1 C 87 % 1019,5 hPa 0,0 mm 1,6 km/h (1 Bft) NO 45 0 min 0 UV-I 0 W/m 11,3 km/h (2 Bft)
17.10.2010 04:00 6,1 C 87 % 1019,4 hPa 0,0 mm 3,2 km/h (1 Bft) N 360 0 min 0 UV-I 0 W/m 9,7 km/h (2 Bft)
17.10.2010 04:10 6,1 C 86 % 1019,5 hPa 0,0 mm 3,2 km/h (1 Bft) N-NO 22 0 min 0 UV-I 0 W/m 11,3 km/h (2 Bft)
17.10.2010 04:20 6,1 C 86 % 1019,4 hPa 0,0 mm 4,8 km/h (1 Bft) N-NO 22 0 min 0 UV-I 0 W/m 14,5 km/h (3 Bft)
17.10.2010 04:30 6,1 C 86 % 1019,3 hPa 0,0 mm 1,6 km/h (1 Bft) N-NO 22 0 min 0 UV-I 0 W/m 8,0 km/h (2 Bft)
17.10.2010 04:40 6,0 C 87 % 1019,3 hPa 0,0 mm 3,2 km/h (1 Bft) O-NO 67 0 min 0 UV-I 0 W/m 11,3 km/h (2 Bft)
17.10.2010 04:50 6,0 C 86 % 1019,4 hPa 0,0 mm 1,6 km/h (1 Bft) N-NO 22 0 min 0 UV-I 0 W/m 9,7 km/h (2 Bft)
17.10.2010 05:00 5,9 C 87 % 1019,4 hPa 0,0 mm 1,6 km/h (1 Bft) N-NO 22 0 min 0 UV-I 0 W/m 11,3 km/h (2 Bft)
17.10.2010 05:10 5,9 C 87 % 1019,4 hPa 0,0 mm 3,2 km/h (1 Bft) N-NO 22 0 min 0 UV-I 0 W/m 9,7 km/h (2 Bft)
17.10.2010 05:20 5,9 C 87 % 1019,4 hPa 0,0 mm 1,6 km/h (1 Bft) N 360 0 min 0 UV-I 0 W/m 6,4 km/h (2 Bft)
17.10.2010 05:30 5,8 C 87 % 1019,5 hPa 0,0 mm 1,6 km/h (1 Bft) N-NO 22 0 min 0 UV-I 0 W/m 6,4 km/h (2 Bft)
17.10.2010 05:40 5,8 C 87 % 1019,7 hPa 0,0 mm 1,6 km/h (1 Bft) N-NO 22 0 min 0 UV-I 0 W/m 6,4 km/h (2 Bft)
17.10.2010 05:50 5,8 C 87 % 1019,6 hPa 0,0 mm 1,6 km/h (1 Bft) N-NO 22 0 min 0 UV-I 0 W/m 8,0 km/h (2 Bft)
17.10.2010 06:00 5,8 C 87 % 1019,7 hPa 0,0 mm 1,6 km/h (1 Bft) N-NO 22 0 min 0 UV-I 0 W/m 8,0 km/h (2 Bft)
17.10.2010 06:10 5,8 C 87 % 1019,8 hPa 0,0 mm 1,6 km/h (1 Bft) N-NO 22 0 min 0 UV-I 0 W/m 4,8 km/h (1 Bft)
17.10.2010 06:20 5,8 C 88 % 1019,9 hPa 0,0 mm 0,0 km/h (0 Bft) N-NO 22 0 min 0 UV-I 0 W/m 6,4 km/h (2 Bft)
17.10.2010 06:30 5,8 C 88 % 1020,0 hPa 0,0 mm 1,6 km/h (1 Bft) N-NO 22 0 min 0 UV-I 0 W/m 8,0 km/h (2 Bft)
17.10.2010 06:40 5,8 C 88 % 1020,1 hPa 0,0 mm 1,6 km/h (1 Bft) N-NO 22 0 min 0 UV-I 0 W/m 6,4 km/h (2 Bft)
17.10.2010 06:50 5,8 C 88 % 1020,1 hPa 0,0 mm 1,6 km/h (1 Bft) N-NO 22 0 min 0 UV-I 0 W/m 6,4 km/h (2 Bft)
17.10.2010 07:00 5,8 C 88 % 1020,2 hPa 0,0 mm 0,0 km/h (0 Bft) N-NO 22 0 min 0 UV-I 0 W/m 4,8 km/h (1 Bft)
17.10.2010 07:10 5,7 C 88 % 1020,3 hPa 0,0 mm 1,6 km/h (1 Bft) N-NO 22 0 min 0 UV-I 0 W/m 6,4 km/h (2 Bft)
17.10.2010 07:20 5,7 C 88 % 1020,4 hPa 0,0 mm 1,6 km/h (1 Bft) N-NO 22 0 min 0 UV-I 0 W/m 8,0 km/h (2 Bft)
17.10.2010 07:30 5,7 C 88 % 1020,4 hPa 0,0 mm 1,6 km/h (1 Bft) N-NO 22 0 min 0 UV-I 0 W/m 6,4 km/h (2 Bft)
17.10.2010 07:40 5,8 C 89 % 1020,5 hPa 0,0 mm 1,6 km/h (1 Bft) N-NO 22 0 min 0 UV-I 0 W/m 6,4 km/h (2 Bft)
17.10.2010 07:50 5,8 C 89 % 1020,5 hPa 0,0 mm 0,0 km/h (0 Bft) N-NO 22 0 min 0 UV-I 0 W/m 6,4 km/h (2 Bft)
17.10.2010 08:00 5,8 C 89 % 1020,7 hPa 0,0 mm 1,4 km/h (1 Bft) O-NO 63 0 min 0 UV-I 0 W/m 6,4 km/h (2 Bft)
17.10.2010 08:10 5,8 C 89 % 1020,7 hPa 0,0 mm 1,6 km/h (1 Bft) N-NO 22 0 min 0 UV-I 0 W/m 8,0 km/h (2 Bft)
17.10.2010 08:20 5,8 C 89 % 1020,7 hPa 0,0 mm 1,6 km/h (1 Bft) N-NO 22 0 min 0 UV-I 0 W/m 8,0 km/h (2 Bft)
17.10.2010 08:30 5,8 C 89 % 1020,8 hPa 0,0 mm 1,6 km/h (1 Bft) N 360 0 min 0 UV-I 0 W/m 8,0 km/h (2 Bft)
17.10.2010 08:40 5,8 C 89 % 1020,9 hPa 0,0 mm 1,6 km/h (1 Bft) N 360 0 min 0 UV-I 0 W/m 11,3 km/h (2 Bft)
17.10.2010 08:50 5,9 C 89 % 1020,9 hPa 0,0 mm 3,2 km/h (1 Bft) N-NO 22 0 min 0 UV-I 9 W/m 8,0 km/h (2 Bft)
17.10.2010 09:00 5,9 C 89 % 1020,9 hPa 0,0 mm 1,6 km/h (1 Bft) N-NO 22 0 min 0 UV-I 12 W/m 9,7 km/h (2 Bft)
17.10.2010 09:10 5,9 C 89 % 1021,1 hPa 0,0 mm 1,6 km/h (1 Bft) N-NO 22 0 min 0 UV-I 12 W/m 8,0 km/h (2 Bft)
17.10.2010 09:20 5,9 C 89 % 1021,1 hPa 0,0 mm 1,6 km/h (1 Bft) NO 45 0 min 0 UV-I 18 W/m 9,7 km/h (2 Bft)
17.10.2010 09:30 5,9 C 89 % 1021,2 hPa 0,0 mm 1,6 km/h (1 Bft) N-NO 22 0 min 0 UV-I 26 W/m 8,0 km/h (2 Bft)
17.10.2010 09:40 6,0 C 89 % 1021,1 hPa 0,0 mm 1,6 km/h (1 Bft) NO 45 0 min 0 UV-I 58 W/m 8,0 km/h (2 Bft)
17.10.2010 09:50 6,1 C 89 % 1021,2 hPa 0,0 mm 1,6 km/h (1 Bft) NO 45 0 min 0 UV-I 47 W/m 11,3 km/h (2 Bft)
17.10.2010 10:00 6,1 C 89 % 1021,2 hPa 0,0 mm 1,6 km/h (1 Bft) NO 45 0 min 0 UV-I 33 W/m 6,4 km/h (2 Bft)
17.10.2010 10:10 6,2 C 89 % 1021,3 hPa 0,0 mm 1,6 km/h (1 Bft) N-NO 22 0 min 0 UV-I 33 W/m 8,0 km/h (2 Bft)
17.10.2010 10:20 6,2 C 89 % 1021,4 hPa 0,0 mm 1,6 km/h (1 Bft) N-NO 22 0 min 0 UV-I 47 W/m 9,7 km/h (2 Bft)
17.10.2010 10:30 6,2 C 89 % 1021,5 hPa 0,0 mm 1,6 km/h (1 Bft) N-NO 22 0 min 0 UV-I 46 W/m 8,0 km/h (2 Bft)
17.10.2010 10:40 6,3 C 89 % 1021,6 hPa 0,0 mm 1,8 km/h (1 Bft) N-NO 13 0 min 0 UV-I 38 W/m 8,0 km/h (2 Bft)
17.10.2010 10:50 6,3 C 88 % 1021,5 hPa 0,0 mm 2,3 km/h (1 Bft) O-NO 61 0 min 0 UV-I 46 W/m 9,7 km/h (2 Bft)
17.10.2010 11:00 6,4 C 88 % 1021,5 hPa 0,0 mm 2,3 km/h (1 Bft) N-NO 32 0 min 0 UV-I 58 W/m 8,0 km/h (2 Bft)
17.10.2010 11:10 6,5 C 88 % 1021,7 hPa 0,0 mm 1,8 km/h (1 Bft) N 360 0 min 0 UV-I 51 W/m 8,0 km/h (2 Bft)
17.10.2010 11:20 6,6 C 88 % 1021,5 hPa 0,0 mm 2,1 km/h (1 Bft) O-NO 69 0 min 0 UV-I 51 W/m 11,3 km/h (2 Bft)
17.10.2010 11:30 6,6 C 88 % 1021,6 hPa 0,0 mm 2,5 km/h (1 Bft) NO 45 0 min 0 UV-I 52 W/m 9,7 km/h (2 Bft)
17.10.2010 11:40 6,7 C 92 % 1021,6 hPa 0,0 mm 1,0 km/h (0 Bft) O-NO 64 0 min 0 UV-I 48 W/m 8,0 km/h (2 Bft)
17.10.2010 11:50 6,7 C 88 % 1021,7 hPa 0,0 mm 1,8 km/h (1 Bft) N-NO 15 0 min 0 UV-I 53 W/m 8,0 km/h (2 Bft)
17.10.2010 12:00 6,7 C 87 % 1021,7 hPa 0,0 mm 1,6 km/h (1 Bft) N-NO 17 0 min 0 UV-I 51 W/m 9,7 km/h (2 Bft)
17.10.2010 12:10 6,8 C 87 % 1021,8 hPa 0,0 mm 1,1 km/h (1 Bft) N 9 0 min 0 UV-I 54 W/m 4,8 km/h (1 Bft)
17.10.2010 12:20 6,9 C 87 % 1021,9 hPa 0,0 mm 2,2 km/h (1 Bft) N-NO 22 0 min 0 UV-I 55 W/m 8,0 km/h (2 Bft)
17.10.2010 12:30 6,9 C 87 % 1021,9 hPa 0,0 mm 2,2 km/h (1 Bft) N-NO 16 0 min 0 UV-I 57 W/m 8,0 km/h (2 Bft)
17.10.2010 12:40 7,0 C 87 % 1021,9 hPa 0,0 mm 1,5 km/h (1 Bft) N-NO 18 0 min 0 UV-I 56 W/m 8,0 km/h (2 Bft)
17.10.2010 12:50 7,0 C 86 % 1022,0 hPa 0,0 mm 1,4 km/h (1 Bft) N-NO 32 0 min 0 UV-I 44 W/m 6,4 km/h (2 Bft)
17.10.2010 13:00 7,1 C 86 % 1021,9 hPa 0,0 mm 2,0 km/h (1 Bft) N-NO 21 0 min 0 UV-I 44 W/m 9,7 km/h (2 Bft)
17.10.2010 13:10 7,1 C 86 % 1021,7 hPa 0,0 mm 2,7 km/h (1 Bft) N-NO 21 0 min 1 UV-I 75 W/m 8,0 km/h (2 Bft)
17.10.2010 13:20 7,2 C 86 % 1021,8 hPa 0,0 mm 1,1 km/h (1 Bft) NO 42 0 min 1 UV-I 88 W/m 4,8 km/h (1 Bft)
17.10.2010 13:30 7,3 C 86 % 1021,7 hPa 0,0 mm 1,8 km/h (1 Bft) O-NO 57 0 min 1 UV-I 73 W/m 8,0 km/h (2 Bft)
17.10.2010 13:40 7,3 C 86 % 1021,7 hPa 0,0 mm 3,0 km/h (1 Bft) N 355 0 min 1 UV-I 81 W/m 11,3 km/h (2 Bft)
17.10.2010 13:50 7,3 C 85 % 1021,8 hPa 0,0 mm 3,0 km/h (1 Bft) N-NO 17 0 min 1 UV-I 61 W/m 8,0 km/h (2 Bft)
17.10.2010 14:00 7,3 C 85 % 1021,7 hPa 0,0 mm 3,8 km/h (1 Bft) N 9 0 min 1 UV-I 67 W/m 9,7 km/h (2 Bft)
17.10.2010 14:10 7,4 C 85 % 1021,6 hPa 0,0 mm 2,2 km/h (1 Bft) N 9 0 min 1 UV-I 68 W/m 9,7 km/h (2 Bft)
17.10.2010 14:20 7,4 C 85 % 1021,7 hPa 0,0 mm 2,7 km/h (1 Bft) N-NO 29 0 min 0 UV-I 51 W/m 11,3 km/h (2 Bft)
17.10.2010 14:30 7,4 C 85 % 1021,7 hPa 0,0 mm 4,1 km/h (1 Bft) NO 48 0 min 0 UV-I 49 W/m 11,3 km/h (2 Bft)
17.10.2010 14:40 7,4 C 84 % 1021,7 hPa 0,0 mm 2,8 km/h (1 Bft) NO 49 0 min 0 UV-I 53 W/m 9,7 km/h (2 Bft)
17.10.2010 14:50 7,4 C 85 % 1021,6 hPa 0,0 mm 2,0 km/h (1 Bft) NO 49 0 min 1 UV-I 70 W/m 9,7 km/h (2 Bft)
17.10.2010 15:00 7,4 C 85 % 1021,6 hPa 0,0 mm 1,5 km/h (1 Bft) O-NO 73 0 min 1 UV-I 61 W/m 9,7 km/h (2 Bft)
17.10.2010 15:10 7,5 C 85 % 1021,6 hPa 0,0 mm 1,6 km/h (1 Bft) NO 46 0 min 1 UV-I 78 W/m 6,4 km/h (2 Bft)
17.10.2010 15:20 7,6 C 85 % 1021,6 hPa 0,0 mm 1,2 km/h (1 Bft) O-NO 69 0 min 1 UV-I 75 W/m 6,4 km/h (2 Bft)
17.10.2010 15:30 7,6 C 85 % 1021,7 hPa 0,0 mm 2,6 km/h (1 Bft) O-NO 73 0 min 1 UV-I 74 W/m 9,7 km/h (2 Bft)
17.10.2010 15:40 7,7 C 85 % 1021,7 hPa 0,0 mm 2,6 km/h (1 Bft) O-NO 64 0 min 1 UV-I 84 W/m 8,0 km/h (2 Bft)
17.10.2010 15:50 7,7 C 85 % 1021,7 hPa 0,0 mm 1,6 km/h (1 Bft) O-NO 67 0 min 1 UV-I 69 W/m 8,0 km/h (2 Bft)
17.10.2010 16:00 7,8 C 85 % 1021,7 hPa 0,0 mm 0,7 km/h (0 Bft) O 87 0 min 0 UV-I 50 W/m 6,4 km/h (2 Bft)
17.10.2010 16:10 7,8 C 85 % 1021,7 hPa 0,0 mm 1,6 km/h (1 Bft) O-NO 67 0 min 0 UV-I 56 W/m 6,4 km/h (2 Bft)
17.10.2010 16:20 7,8 C 84 % 1021,7 hPa 0,0 mm 1,6 km/h (1 Bft) O-NO 67 0 min 0 UV-I 53 W/m 6,4 km/h (2 Bft)
17.10.2010 16:30 7,8 C 84 % 1021,6 hPa 0,0 mm 1,6 km/h (1 Bft) NO 45 0 min 0 UV-I 58 W/m 8,0 km/h (2 Bft)
17.10.2010 16:40 7,8 C 84 % 1021,6 hPa 0,0 mm 1,6 km/h (1 Bft) NO 45 0 min 1 UV-I 84 W/m 6,4 km/h (2 Bft)
17.10.2010 16:50 7,8 C 84 % 1021,7 hPa 0,0 mm 1,6 km/h (1 Bft) NO 45 0 min 1 UV-I 83 W/m 6,4 km/h (2 Bft)
17.10.2010 17:00 7,8 C 84 % 1021,7 hPa 0,0 mm 1,6 km/h (1 Bft) NO 45 0 min 0 UV-I 44 W/m 6,4 km/h (2 Bft)
17.10.2010 17:10 7,8 C 83 % 1021,8 hPa 0,0 mm 1,6 km/h (1 Bft) NO 45 0 min 0 UV-I 37 W/m 8,0 km/h (2 Bft)
17.10.2010 17:20 7,8 C 83 % 1021,8 hPa 0,0 mm 0,0 km/h (0 Bft) O-NO 67 0 min 0 UV-I 35 W/m 4,8 km/h (1 Bft)
17.10.2010 17:30 7,8 C 83 % 1021,7 hPa 0,0 mm 1,6 km/h (1 Bft) O-NO 67 0 min 0 UV-I 25 W/m 4,8 km/h (1 Bft)
17.10.2010 17:40 7,8 C 82 % 1021,8 hPa 0,0 mm 1,6 km/h (1 Bft) NO 45 0 min 0 UV-I 21 W/m 6,4 km/h (2 Bft)
17.10.2010 17:50 7,7 C 82 % 1021,8 hPa 0,0 mm 1,6 km/h (1 Bft) NO 45 0 min 0 UV-I 19 W/m 6,4 km/h (2 Bft)
17.10.2010 18:00 7,7 C 82 % 1021,9 hPa 0,0 mm 0,0 km/h (0 Bft) O-NO 67 0 min 0 UV-I 12 W/m 4,8 km/h (1 Bft)
17.10.2010 18:10 7,6 C 82 % 1022,0 hPa 0,0 mm 1,6 km/h (1 Bft) O-NO 67 0 min 0 UV-I 5 W/m 4,8 km/h (1 Bft)
17.10.2010 18:20 7,6 C 82 % 1022,2 hPa 0,0 mm 0,0 km/h (0 Bft) O-NO 67 0 min 0 UV-I 0 W/m 3,2 km/h (1 Bft)
17.10.2010 18:30 7,5 C 82 % 1022,2 hPa 0,0 mm 0,0 km/h (0 Bft) O-NO 67 0 min 0 UV-I 0 W/m 4,8 km/h (1 Bft)
17.10.2010 18:40 7,4 C 82 % 1022,4 hPa 0,0 mm 0,0 km/h (0 Bft) O-NO 67 0 min 0 UV-I 0 W/m 4,8 km/h (1 Bft)
17.10.2010 18:50 7,4 C 82 % 1022,4 hPa 0,0 mm 0,0 km/h (0 Bft) O-NO 67 0 min 0 UV-I 0 W/m 6,4 km/h (2 Bft)
17.10.2010 19:00 7,3 C 82 % 1022,4 hPa 0,0 mm 0,0 km/h (0 Bft) O-NO 67 0 min 0 UV-I 0 W/m 1,6 km/h (1 Bft)
17.10.2010 19:10 7,3 C 82 % 1022,5 hPa 0,0 mm 0,0 km/h (0 Bft) O-NO 67 0 min 0 UV-I 0 W/m 4,8 km/h (1 Bft)
17.10.2010 19:20 7,3 C 82 % 1022,5 hPa 0,0 mm 0,0 km/h (0 Bft) O-NO 67 0 min 0 UV-I 0 W/m 4,8 km/h (1 Bft)
17.10.2010 19:30 7,2 C 82 % 1022,6 hPa 0,0 mm 1,6 km/h (1 Bft) O 90 0 min 0 UV-I 0 W/m 6,4 km/h (2 Bft)
17.10.2010 19:40 7,1 C 82 % 1022,8 hPa 0,0 mm 1,6 km/h (1 Bft) O-SO 112 0 min 0 UV-I 0 W/m 8,0 km/h (2 Bft)
17.10.2010 19:50 7,1 C 82 % 1022,6 hPa 0,0 mm 1,6 km/h (1 Bft) O-SO 112 0 min 0 UV-I 0 W/m 6,4 km/h (2 Bft)
17.10.2010 20:00 7,1 C 83 % 1022,6 hPa 0,0 mm 1,6 km/h (1 Bft) O 90 0 min 0 UV-I 0 W/m 4,8 km/h (1 Bft)
17.10.2010 20:10 7,0 C 82 % 1022,6 hPa 0,0 mm 0,0 km/h (0 Bft) O 90 0 min 0 UV-I 0 W/m 3,2 km/h (1 Bft)
17.10.2010 20:20 7,0 C 83 % 1022,6 hPa 0,0 mm 0,0 km/h (0 Bft) O 90 0 min 0 UV-I 0 W/m 3,2 km/h (1 Bft)
17.10.2010 20:30 6,9 C 83 % 1022,6 hPa 0,0 mm 0,0 km/h (0 Bft) O 90 0 min 0 UV-I 0 W/m 3,2 km/h (1 Bft)
17.10.2010 20:40 6,9 C 83 % 1022,5 hPa 0,0 mm 0,0 km/h (0 Bft) O 90 0 min 0 UV-I 0 W/m 6,4 km/h (2 Bft)
17.10.2010 20:50 6,8 C 82 % 1022,6 hPa 0,0 mm 0,0 km/h (0 Bft) O 90 0 min 0 UV-I 0 W/m 3,2 km/h (1 Bft)
17.10.2010 21:00 6,8 C 82 % 1022,6 hPa 0,0 mm 0,0 km/h (0 Bft) N 0 0 min 0 UV-I 0 W/m 0,0 km/h (0 Bft)
17.10.2010 21:10 6,6 C 81 % 1022,7 hPa 0,0 mm 0,0 km/h (0 Bft) N 0 0 min 0 UV-I 0 W/m 0,0 km/h (0 Bft)
17.10.2010 21:20 6,4 C 81 % 1022,6 hPa 0,0 mm 0,0 km/h (0 Bft) N 0 0 min 0 UV-I 0 W/m 0,0 km/h (0 Bft)
17.10.2010 21:30 6,2 C 81 % 1022,5 hPa 0,0 mm 0,0 km/h (0 Bft) N 0 0 min 0 UV-I 0 W/m 0,0 km/h (0 Bft)
17.10.2010 21:40 6,0 C 81 % 1022,5 hPa 0,0 mm 0,0 km/h (0 Bft) N 0 0 min 0 UV-I 0 W/m 0,0 km/h (0 Bft)
17.10.2010 21:50 5,8 C 81 % 1022,6 hPa 0,0 mm 0,0 km/h (0 Bft) N 0 0 min 0 UV-I 0 W/m 0,0 km/h (0 Bft)
17.10.2010 22:00 5,6 C 81 % 1022,6 hPa 0,0 mm 0,0 km/h (0 Bft) N 0 0 min 0 UV-I 0 W/m 0,0 km/h (0 Bft)
17.10.2010 22:10 5,3 C 81 % 1022,6 hPa 0,0 mm 0,0 km/h (0 Bft) N 0 0 min 0 UV-I 0 W/m 0,0 km/h (0 Bft)
17.10.2010 22:20 5,1 C 82 % 1022,7 hPa 0,0 mm 0,0 km/h (0 Bft) N 0 0 min 0 UV-I 0 W/m 0,0 km/h (0 Bft)
17.10.2010 22:30 4,9 C 82 % 1022,7 hPa 0,0 mm 0,0 km/h (0 Bft) N 0 0 min 0 UV-I 0 W/m 0,0 km/h (0 Bft)
17.10.2010 22:40 4,8 C 83 % 1022,7 hPa 0,0 mm 0,0 km/h (0 Bft) N 0 0 min 0 UV-I 0 W/m 0,0 km/h (0 Bft)
17.10.2010 22:50 4,8 C 84 % 1022,6 hPa 0,0 mm 0,0 km/h (0 Bft) N 0 0 min 0 UV-I 0 W/m 0,0 km/h (0 Bft)
17.10.2010 23:00 4,8 C 85 % 1022,5 hPa 0,0 mm 0,0 km/h (0 Bft) O 90 0 min 0 UV-I 0 W/m 1,6 km/h (1 Bft)
17.10.2010 23:10 4,9 C 85 % 1022,5 hPa 0,0 mm 0,0 km/h (0 Bft) O 90 0 min 0 UV-I 0 W/m 1,6 km/h (1 Bft)
17.10.2010 23:20 4,9 C 85 % 1022,5 hPa 0,0 mm 0,0 km/h (0 Bft) N 0 0 min 0 UV-I 0 W/m 0,0 km/h (0 Bft)
17.10.2010 23:30 4,9 C 85 % 1022,4 hPa 0,0 mm 0,0 km/h (0 Bft) N 0 0 min 0 UV-I 0 W/m 0,0 km/h (0 Bft)
17.10.2010 23:40 4,8 C 85 % 1022,4 hPa 0,0 mm 0,0 km/h (0 Bft) O 90 0 min 0 UV-I 0 W/m 1,6 km/h (1 Bft)
17.10.2010 23:50 4,7 C 85 % 1022,4 hPa 0,0 mm 0,0 km/h (0 Bft) N 0 0 min 0 UV-I 0 W/m 0,0 km/h (0 Bft)
_ Min-Zeit 23:50 21:10 00:00 - 06:20 - - - - - 21:00
Minimum _ 4,6 C 81 % 1017,7 hPa - 0,0 km/h (0 Bft) - - - - - 0,0 km/h (0 Bft)
_ Max-Zeit 15:50 11:40 19:40 00:00 01:20 - - 00:00 13:20 13:20 00:20
Maximum _ 7,8 C 92 % 1022,8 hPa 0,0 mm 4,8 km/h
N-NO (1 Bft)
- - 0 min 1 UV-I 88 W/m 19,3 km/h
N (3 Bft)
Durchschnitt _ 6,5 C 86 % 1021,0 hPa #0,0 mm 1,6 km/h (1 Bft) N-NO - #0 min. 0 UV-I 50 W/m 7,2 km/h (2 Bft)